Location: Newark
(15.4608°S, 41.1635°W)
Time: 05:29:44
(UTC+00:00)

Envisat - Pass Details

Date: 23 June 2021
Orbit: 764 x 766 km, 98.2° (Epoch: 27 July)

Event Time Altitude Azimuth Distance (km) Brightness Sun altitude
Rises 07:30:33 0° 14° (NNE) 3,210 6.7 -23.3°
Reaches altitude 10° 07:32:50 10° 15° (NNE) 2,290 5.9 -22.8°
Maximum altitude 07:37:53 83° 102° (ESE) 776 3.0 -21.6°
Enters shadow 07:41:43 18° 189° (S) 1,815 4.7 -20.7°
